Location: Ulm
(48.3980°N, 9.9777°E)
Time: 09:23:59
(UTC+01:00)

ISS - Pass Details

Date: 12 November 2017
Orbit: 402 x 407 km, 51.6° (Epoch: 21 November)

Event Time Altitude Azimuth Distance (km) Brightness Sun altitude
Exits shadow 04:19:52 13° 73° (ENE) 1,313 -0.4 -30.4°
Drops below altitude 10° 04:20:14 10° 75° (ENE) 1,457 -0.1 -30.3°
Sets 04:22:22 0° 82° (E) 2,316 1.2 -30.0°
